Regional Weather Roundup
Issued by NWS New Orleans/Baton Rouge, LA

Home | Current Version | Previous Version | Graphics & Text | Print | Product List | Glossary On
Versions: 1 2 3 4 5 6 7 8 9 10 11 12 13 14 15 16 17 18 19 20 21 22 23 24 25 26 27 28 29 30 31 32 33 34 35 36 37 38 39 40 41 42 43 44 45 46 47 48 49 50
901
ASUS44 KLIX 260701
RWRLIX
NEW ORLEANS REGIONAL WEATHER ROUNDUP
NATIONAL WEATHER SERVICE NEW ORLEANS LA
200 AM CDT SAT JUL 26 2014

NOTE: "FAIR" INDICATES FEW OR NO CLOUDS BELOW 12,000 FEET WITH NO
      SIGNIFICANT WEATHER AND/OR OBSTRUCTIONS TO VISIBILITY.
      SKY/WX - SKY CONDITION AND SIGNIFICANT WEATHER.
      TMP - AIR TEMPERATURE.     DP    - DEWPOINT TEMPERATURE.
      RH  - RELATIVE HUMIDITY.   PRES  - PRESSURE.
      HI  - HEAT INDEX.          WCI   - WIND CHILL INDEX.

*  THESE STATIONS ARE NOT NWS OR FAA STATIONS AND ARE NOT UNDER
   NWS QUALITY CONTROL.

LAZ038-040-048-061>063-065>067-069-260800-
SOUTHEAST LOUISIANA

CITY           SKY/WX    TMP DP  RH WIND       PRES   REMARKS
N.O. AUDUBON   NOT AVBL
N.O. INTL ARPT MOCLDY    79  75  87 SW6       30.01F
N.O. LAKEFRONT MOCLDY    81  76  84 SW9       30.02S
N.O. DOWNTOWN*   N/A     81  72  74 CALM      30.02F
SLIDELL        PTCLDY    78  75  90 CALM      30.01F
BATON ROUGE    MOCLDY    79  74  84 SW6       30.01F
BOOTHVILLE     MOCLDY    83  76  79 SW8       30.02F
BELLE CHASSE   MOCLDY    79  75  87 W3        30.01F
BOGALUSA*      CLOUDY    77  73  88 CALM      30.03S
GALLIANO*      NOT AVBL
NEW ROADS*       N/A     77  75  92 CALM      30.01F
GONZALES*        N/A     76  76 100 CALM      30.01S
HAMMOND*       PTCLDY    81  72  74 CALM      30.02F
HOUMA*         PTCLDY    78  73  85 CALM      30.02F
PORT FOURCHON* MOSUNNY   82  77  83 SW8       30.05S

$$

MSZ070-080>082-260800-
SOUTHERN MISSISSIPPI

CITY           SKY/WX    TMP DP  RH WIND       PRES   REMARKS
MCCOMB         CLEAR     77  74  90 CALM      30.02F
GULFPORT       PTCLDY    80  75  84 CALM      30.00F
BILOXI         PTCLDY    80  77  91 W2        30.00F
PASCAGOULA     CLEAR     77  75  93 CALM      30.00F

$$

COASTAL OBSERVATIONS
LAKE AND NEARSHORE STATIONS

STATION/POSITION TIME  TEMP    WIND        PRES    WAVE
                       AIR SEA DIR/SP/G            HT/PER
                 (UTC) (F)     (DEG/KT/KT) (MB)    (FT/S)
PASCAGOULA       0623   83     240/  9/ 13 1015.7
WAVELAND YACHT   0623   81     230/  3/  4 1015.8
GRAND ISLE       0623   83 86  250/  6/  7 1017.9
SOUTHWEST PASS   0623   83 84  260/ 13/ 15 1017.7
NEW CANAL        0623   82 83  230/  6/ 10 1017.1
SHELL BEACH      0623   82 81  230/  8/ 10 1016.4

OFFSHORE STATIONS

STATION/POSITION TIME  TEMP    WIND        PRES    WAVE
                       AIR SEA DIR/SP/G            HT/PER
                 (UTC) (F)     (DEG/KT/KT) (MB)    (FT/S)
64 S DAUPHIN ISL 0600   84 84  250/ 14/ 16 1017.0

$$




USA.gov is the U.S. government's official web portal to all federal, state and local government web resources and services.